Terminal Aerodrome Forecast
Issued by NWS

Home | Current Version | Previous Version | Graphics & Text | Print | Product List | Glossary Off
Versions: 1 2 3 4 5 6 7 8 9 10 11 12 13 14 15 16 17 18 19 20 21 22 23 24 25 26 27 28 29 30 31 32

000
FTUS43 KDDC 270846 AAB
TAFHYS
TAF AMD
KHYS 270846Z 2709/2806 34008KT P6SM VCTS BKN090CB
     FM271200 VRB05KT 3SM BR BKN250
      TEMPO 2712/2714 1SM BR
     FM271500 18008KT P6SM SCT200=

USA.gov is the U.S. government's official web portal to all federal, state and local government web resources and services.